Regional Weather Roundup
Issued by NWS

Home | Current Version | Previous Version | Graphics & Text | Print | Product List | Glossary On
Versions: 1 2 3 4 5 6 7 8 9 10 11 12 13 14 15 16 17 18 19 20 21 22 23 24 25 26 27 28 29 30 31 32 33 34 35 36 37 38 39 40 41 42 43 44 45 46 47 48 49 50
000
ASUS43 KLOT 280409
RWRIL

ILLINOIS REGIONAL WEATHER ROUNDUP
NATIONAL WEATHER SERVICE CHICAGO/ROMEOVILLE IL
1100 PM CDT WED MAY 27 2015

NOTE: "FAIR" INDICATES FEW OR NO CLOUDS BELOW 12,000 FEET WITH NO
SIGNIFICANT WEATHER AND/OR OBSTRUCTIONS TO VISIBILITY.

* THESE STATIONS ARE NOT UNDER NWS QUALITY CONTROL. THEY ALSO MAY NOT
  REPORT WEATHER SUCH AS PRECIPITATION OR FOG.

ILZ001-002-007-009-015-016-024-280500-
NORTHWEST ILLINOIS

CITY           SKY/WX    TMP DP  RH WIND       PRES   REMARKS
MOLINE         CLEAR     62  57  83 CALM      30.12R
STERLING*      CLEAR     68  57  68 S5        30.13R
SAVANNA*       CLEAR     65  60  82 CALM      30.12R
$$

ILZ003-004-008-010-011-017-018-280500-
NORTH CENTRAL ILLINOIS

CITY           SKY/WX    TMP DP  RH WIND       PRES   REMARKS
ROCKFORD       PTCLDY    62  57  83 S3        30.14R
FREEPORT*      CLEAR     61  57  87 S6        30.14R
ROCHELLE*      CLEAR     60  58  92 S5        30.14R
DE KALB*       CLEAR     61  54  78 S3        30.14R
PERU*          CLEAR     67  57  70 S3        30.14R
$$

ILZ005-006-012>014-019>023-280500-
NORTHEAST ILLINOIS

CITY           SKY/WX    TMP DP  RH WIND       PRES   REMARKS
CHICAGO-OHARE  CLEAR     62  54  74 SE5       30.12R
CHICAGO-MIDWAY CLEAR     65  55  70 SE7       30.12R
AURORA         CLEAR     61  55  81 CALM      30.13R
LANSING*       CLEAR     59  54  82 CALM      30.13S
JOLIET*        CLEAR     59  58  96 CALM      30.13R
WAUKEGAN       CLEAR     59  55  87 S3        30.11R
DUPAGE AIRPORT CLEAR     60  56  86 CALM      30.12R
KANKAKEE*      CLEAR     64  55  72 CALM      30.13S
WHEELING       CLEAR     60  54  80 CALM      30.13R
MORRIS*        CLEAR     65  56  74 CALM      30.11S
ROMEOVILLE*    CLEAR     62  55  77 S5        30.13R
NORTHERLY ISL    N/A     58  53  84 SE3         N/A
$$

LMZ740>746-280500-
SOUTHERN LAKE MICHIGAN

STATION/POSITION SKY/WX   TEMP    WIND        PRES    VSBY  WAVE
                          AIR SEA DIR/SP/G                  HT/PER
                          (F)     (DEG/KT/KT) (MB)    (MI)  (FT/S)
SOUTHERN BUOY              45 38  180/  6/  8 1020.2R         0
HARRISON CRIB              60     120/  4/  5   N/A
BURNHAM HARBOR             57     160/  4/  4   N/A
CALUMET HARBOR             60     100/  3/  4   N/A
BURNS HARBOR               62      80/  6/  7 1020.7R
MICHIGAN CITY              59      40/  4/  4   N/A
MICHIGAN CITY 6N           56 53  160/  2/  2   N/A           1
ST. JOSEPH                 55 56  210/  2/  4   N/A           1
$$

ILZ025>027-034>036-040-047-049-050-058-095>099-280500-
WEST-CENTRAL ILLINOIS

CITY           SKY/WX    TMP DP  RH WIND       PRES   REMARKS
QUINCY         PTCLDY    69  56  62 SE3       30.12S
GALESBURG*     PTCLDY    63  57  81 CALM      30.13S
MACOMB*        PTCLDY    64  60  86 CALM      30.14S
JACKSONVILLE*  PTCLDY    66  60  83 CALM      30.13R
PITTSFIELD*    PTCLDY    65  60  84 CALM      30.13S
$$

ILZ028>032-037-038-041>044-048-051>054-059>061-280500-
CENTRAL ILLINOIS

CITY           SKY/WX    TMP DP  RH WIND       PRES   REMARKS
PONTIAC        CLEAR     64  59  84 CALM      30.15R
BLOOMINGTON    CLEAR     68  57  67 CALM      30.15R
DECATUR        CLEAR     64  58  80 CALM      30.13R
PEORIA         CLEAR     66  58  75 CALM      30.13R
LACON*         CLEAR     60  58  90 CALM      30.12S
LINCOLN*       CLEAR     65  59  79 CALM      30.11R
SPRINGFIELD    CLEAR     63  59  87 CALM      30.13R
TAYLORVILLE    CLEAR     61  61 100 CALM      30.13R
$$

ILZ033-039-045-046-055>057-062-063-280500-
EAST-CENTRAL ILLINOIS

CITY           SKY/WX    TMP DP  RH WIND       PRES   REMARKS
CHAMPAIGN      CLEAR     65  54  67 N6        30.13R
DANVILLE*      CLEAR     62  56  79 N6        30.10S
RANTOUL*       CLEAR     67  57  69 N5        30.13S
PARIS*         PTCLDY    63  56  78 CALM      30.14R
$$

ILZ079-100>102-280500-
SOUTHWEST ILLINOIS

CITY           SKY/WX    TMP DP  RH WIND       PRES   REMARKS
ALTON          CLEAR     64  63  96 E3        30.12R
CAHOKIA*       CLEAR     68  60  75 CALM      30.11R
SPARTA*        MOCLDY    68  63  84 SE3       30.13R
$$

ILZ064>066-069>071-074>076-080>082-084>086-088>090-092>094-280500-
SOUTH-CENTRAL ILLINOIS

CITY           SKY/WX    TMP DP  RH WIND       PRES   REMARKS
CARBONDALE     MOCLDY    71  67  87 S6        30.13R
CAIRO*         MOCLDY    70  68  93 S5        30.13R
EFFINGHAM*     CLEAR     64  58  82 CALM      30.13S
MARION         MOCLDY    70  68  94 S3        30.13R
MT. VERNON     MOCLDY    70  63  78 CALM      30.13R
CENTRALIA*     PTCLDY    64  61  89 CALM      30.13R
SALEM*         PTCLDY    69  60  73 CALM      30.13R
METROPOLIS*    MOCLDY    70  70 100 CALM      30.12S
$$

ILZ067-068-072-073-078-083-087-091-280500-
SOUTHEAST ILLINOIS

CITY           SKY/WX    TMP DP  RH WIND       PRES   REMARKS
LAWRENCEVILLE  MOCLDY    71  64  78 W5        30.13R
FLORA*         MOCLDY    70  61  72 CALM      30.12R
FAIRFIELD*     LGT RAIN  70  68  93 CALM      30.12R
HARRISBURG*    MOCLDY    69  67  94 CALM      30.14R
ROBINSON*      MOCLDY    72  59  64 CALM      30.13R
CARMI*         MOCLDY    68  63  83 SE6       30.12R
$$

ABBREVIATIONS USED IN REMARKS
   TC - TEMPERATURE IN CELSIUS
  WCI - WIND CHILL INDEX
   HX - HEAT INDEX
  VSB - VISIBILITY
$$



USA.gov is the U.S. government's official web portal to all federal, state and local government web resources and services.